Vorticity
8 8 8 7 8 8 8 7 7 9 9 5 5 8 8 9 10 10 11 11 11 11 11 11 11 13 15 15 12 12 14 14 13 14 14 14 13 12
9 10 10 9 9 8 8 7 7 7 9 9 7 7 9 10 10 9 11 12 12 12 11 10 11 10 10 10 12 13 11 11 12 11 12 12 12 13
9 10 11 10 10 10 9 8 7 7 7 7 6 8 9 9 10 10 11 12 13 11 10 10 9 10 10 10 8 6 5 5 5 5 6 7 8 9
8 9 9 10 10 10 10 9 9 7 7 7 5 6 9 10 10 11 12 13 13 12 10 9 10 11 10 8 6 6 7 8 9 11 10 12 15 14
6 7 8 9 10 10 10 11 9 8 7 6 7 6 8 11 10 11 13 14 13 12 11 10 9 8 9 10 9 10 10 10 10 10 11 10 6 6
6 6 8 8 8 9 10 10 10 9 8 7 6 7 7 11 12 12 13 13 13 12 10 10 10 10 9 8 7 8 10 10 10 10 10 9 8 5
3 6 6 6 5 8 9 11 10 10 9 7 5 4 7 13 12 11 14 14 14 11 9 9 10 11 11 12 12 10 9 7 7 8 9 11 11 13
5 6 5 6 5 7 7 10 11 10 8 6 4 2 14 13 11 13 13 13 14 12 9 10 11 12 11 11 10 11 13 14 12 11 10 11 11 12
4 10 11 -2 14 7 15 7 10 11 9 6 5 4 10 16 14 13 14 14 13 12 11 12 11 11 11 12 11 8 8 9 7 7 8 11 13 15
14 8 13 -2 3 20 5 12 11 11 9 6 2 9 11 14 11 11 13 13 12 11 11 11 10 11 12 6 7 9 6 7 8 8 6 7 7 9
9 7 16 -2 19 12 0 13 10 12 9 2 -2 10 14 15 10 11 14 11 11 11 10 11 13 11 5 6 10 10 11 10 8 8 8 10 10 9
13 13 7 8 23 4 3 11 8 12 6 0 7 14 14 17 9 12 11 10 10 11 10 11 10 5 6 9 16 12 9 9 9 9 12 12 12 11
12 -4 20 7 12 3 10 8 14 11 8 4 8 20 14 15 10 12 10 10 9 9 11 13 5 5 5 9 8 11 10 10 11 11 10 12 12 10
14 13 10 7 9 8 10 11 14 10 9 15 9 16 18 10 15 12 10 9 9 9 12 10 4 6 4 3 3 5 6 10 10 13 12 12 11 10
11 15 14 11 8 8 11 13 11 11 16 5 14 14 15 9 16 11 11 10 9 9 15 8 4 5 6 6 6 9 10 10 10 12 13 12 10 11
8 10 11 14 17 17 14 14 16 20 5 7 14 13 11 16 12 11 11 10 8 11 15 7 3 3 4 6 5 8 9 8 10 15 14 13 13 11
9 8 12 14 17 17 13 16 21 8 5 12 12 16 9 15 11 13 11 9 9 15 15 9 7 6 6 6 7 9 8 12 10 14 14 14 13 14
9 9 10 13 16 17 12 17 12 4 10 11 16 8 16 11 13 12 11 9 11 15 11 7 9 10 9 9 11 10 10 12 13 14 15 15 17 16
9 9 10 13 19 16 14 15 7 8 12 11 14 15 13 12 12 11 9 10 11 14 10 8 9 9 7 7 10 9 11 15 14 14 17 17 16 19
8 10 10 11 18 16 15 12 5 14 9 18 11 15 11 12 10 11 9 10 11 12 10 10 9 7 5 6 4 12 13 13 13 12 14 17 17 18
13 9 10 12 17 14 16 8 14 12 16 10 16 11 12 10 9 10 9 10 12 13 11 9 9 7 8 8 9 11 12 16 13 13 16 14 15 14
13 10 8 13 16 17 12 14 14 12 11 17 12 12 11 10 10 10 8 9 11 12 13 12 13 12 12 11 11 10 13 15 16 15 16 17 14 11
15 11 8 13 17 17 14 15 9 13 16 12 12 11 11 10 10 9 8 10 11 12 13 13 13 12 11 11 9 9 12 13 13 13 14 17 14 14
Height
3066 3063 3060 3057 3054 3051 3049 3046 3044 3042 3041 3036 3030 3027 3024 3022 3018 3015 3012 3010 3007 3005 3003 3002 3001 3001 3002 3004 3003 3003 3005 3005 3005 3005 3006 3007 3008 3009
3058 3056 3053 3050 3047 3044 3041 3038 3036 3033 3033 3031 3025 3019 3015 3013 3010 3007 3005 3003 3000 2998 2996 2994 2994 2994 2993 2992 2993 2995 2996 2997 2997 2997 2999 2999 2999 2998
3051 3049 3046 3042 3040 3036 3033 3031 3028 3024 3023 3024 3019 3013 3009 3004 3002 2999 2996 2995 2993 2991 2989 2987 2986 2986 2986 2985 2985 2985 2985 2985 2986 2988 2990 2991 2992 2992
3043 3041 3039 3036 3033 3030 3026 3024 3020 3016 3013 3013 3011 3007 3002 2997 2994 2991 2988 2985 2984 2982 2982 2979 2978 2976 2976 2976 2977 2976 2976 2977 2977 2978 2979 2980 2981 2980
3036 3033 3030 3027 3025 3021 3019 3016 3013 3009 3004 3002 3001 2998 2994 2989 2986 2982 2980 2977 2975 2974 2972 2971 2970 2969 2968 2967 2966 2966 2966 2966 2966 2966 2968 2970 2971 2972
3026 3024 3021 3018 3015 3011 3009 3007 3005 3002 2998 2994 2991 2989 2985 2981 2976 2973 2972 2968 2968 2965 2964 2963 2962 2960 2959 2959 2959 2958 2957 2957 2957 2957 2956 2957 2958 2960
3016 3014 3011 3008 3006 3003 2999 2997 2995 2993 2990 2986 2983 2980 2976 2972 2966 2963 2961 2959 2960 2958 2956 2954 2953 2952 2950 2949 2949 2948 2948 2948 2948 2947 2947 2947 2948 2949
3006 3004 3001 2998 2996 2993 2990 2988 2987 2983 2981 2976 2973 2970 2966 2963 2957 2954 2951 2950 2950 2949 2947 2947 2944 2944 2942 2942 2941 2940 2939 2938 2937 2937 2936 2936 2935 2935
2996 2994 2991 2988 2986 2983 2981 2977 2975 2973 2970 2966 2963 2961 2956 2952 2948 2945 2942 2941 2940 2939 2936 2938 2935 2934 2933 2933 2931 2930 2929 2928 2927 2926 2925 2924 2923 2922
2984 2982 2980 2979 2976 2972 2971 2968 2965 2962 2959 2955 2951 2948 2945 2941 2937 2933 2933 2931 2932 2931 2927 2926 2925 2924 2924 2924 2922 2920 2918 2916 2914 2912 2911 2909 2908 2907
2976 2974 2970 2968 2966 2962 2959 2957 2954 2953 2949 2946 2943 2939 2935 2932 2928 2924 2924 2921 2922 2922 2919 2915 2917 2915 2915 2915 2913 2911 2908 2906 2904 2901 2899 2896 2893 2890
2965 2962 2960 2957 2954 2951 2947 2945 2942 2943 2938 2936 2933 2929 2924 2922 2919 2915 2914 2913 2912 2912 2911 2906 2907 2905 2903 2906 2905 2902 2899 2896 2893 2889 2886 2883 2879 2875
2952 2951 2949 2946 2943 2941 2937 2933 2931 2929 2928 2925 2923 2919 2915 2911 2909 2906 2905 2903 2902 2902 2901 2896 2898 2896 2892 2889 2893 2891 2888 2887 2882 2878 2874 2869 2865 2861
2942 2940 2938 2935 2932 2929 2925 2922 2919 2916 2914 2913 2911 2908 2905 2903 2900 2898 2896 2894 2893 2892 2892 2888 2887 2885 2882 2879 2878 2879 2875 2872 2867 2864 2860 2856 2852 2848
2931 2928 2925 2923 2920 2917 2914 2910 2907 2905 2903 2901 2899 2898 2895 2893 2891 2890 2888 2886 2884 2883 2882 2880 2877 2874 2871 2869 2866 2865 2862 2860 2856 2850 2847 2842 2839 2836
2919 2917 2915 2911 2908 2905 2902 2899 2896 2895 2893 2891 2889 2887 2885 2884 2883 2881 2880 2877 2875 2876 2873 2871 2867 2863 2860 2859 2856 2854 2852 2845 2843 2838 2832 2828 2825 2823
2907 2907 2904 2900 2896 2893 2890 2888 2886 2884 2882 2881 2879 2877 2876 2875 2874 2872 2870 2868 2866 2866 2866 2863 2859 2855 2851 2847 2845 2844 2839 2834 2830 2823 2817 2811 2809 2807
2897 2896 2893 2889 2885 2882 2879 2877 2876 2875 2873 2871 2870 2868 2867 2866 2865 2863 2861 2859 2857 2856 2855 2854 2851 2847 2842 2839 2837 2831 2827 2821 2816 2808 2804 2796 2792 2792
2887 2885 2881 2877 2874 2871 2869 2867 2866 2865 2864 2862 2861 2859 2858 2857 2855 2854 2852 2849 2848 2846 2845 2843 2840 2835 2829 2825 2826 2825 2815 2809 2802 2795 2790 2784 2777 2776
2875 2873 2870 2866 2864 2861 2860 2858 2857 2856 2855 2853 2852 2851 2849 2848 2847 2845 2843 2841 2838 2836 2834 2834 2830 2825 2819 2814 2805 2807 2806 2795 2787 2779 2775 2769 2764 2761
2864 2861 2859 2856 2853 2852 2850 2849 2848 2847 2846 2845 2844 2842 2841 2839 2838 2837 2835 2832 2829 2826 2823 2823 2822 2815 2809 2802 2794 2791 2789 2784 2776 2768 2762 2755 2749 2745
2853 2851 2849 2846 2844 2842 2841 2840 2839 2839 2838 2836 2835 2834 2833 2832 2830 2829 2827 2824 2822 2818 2814 2812 2810 2805 2801 2793 2787 2782 2778 2774 2767 2759 2753 2746 2739 2731
2841 2840 2838 2836 2834 2833 2832 2832 2831 2831 2830 2829 2827 2827 2825 2824 2822 2820 2818 2815 2812 2809 2805 2801 2798 2795 2790 2784 2777 2772 2766 2760 2753 2747 2743 2737 2730 2724